Find STENSAT

NORAD ID: 26094 Int'l Des: 2000-004 Owner: AMNA Country: US operational
LEOCIRCULARRETROGRADE

リアルタイム位置

3D地球を読み込み中...

STENSATについて

説明を読み込み中...

次回通過

Passes for default location (London). Set your location on the main map for personalized predictions.

高度履歴

Loading altitude history...

軌道要素

1 26094U 00004M 26119.46562816 .00000800 00000-0 23459-3 0 9996
2 26094 100.2184 126.5096 0031245 326.0721 33.8466 14.47230320378187
Epoch: Apr 29, 2026 • Age: 22 hours

現在のステータス

高度 763.7 km
速度 7.47 km/s
衛星直下点 47.30°N, 39.8°W
打ち上げ日 Jan 27, 2000
運用期間 26.2 years
タイプ other

技術仕様

分類 Payload
質量 0.24 kg
乾燥質量 0.24 kg
総質量 0.24 kg
長さ 0.03 m
直径 0.10 m
スパン 0.10 m
形状 Box
製造者 STEN
バスタイプ STENSAT
フェーズステータス In Orbit
所有者/国 AMNA/US

Most Searched